Miscellaneous Local Product
Issued by NWS Hastings, NE

Home | Current Version | Previous Version | Graphics & Text | Print | Product List | Glossary On
Versions: 1 2 3 4 5 6 7 8 9 10 11 12 13 14 15 16 17 18 19 20 21 22 23 24 25 26 27 28 29 30 31 32 33 34 35 36 37 38 39 40 41 42 43 44 45 46 47 48 49 50
000
AXUS43 KGID 141402
MISGRI

GID CWA HOURLY WEATHER ROUNDUP
NATIONAL WEATHER SERVICE HASTINGS NE
900 AM CDT MON APR 14 2014

NOTE: "FAIR" INDICATES FEW OR NO CLOUDS BELOW 12,000 FEET WITH NO
SIGNIFICANT WEATHER AND/OR OBSTRUCTIONS TO VISIBILITY.

...SOUTH CENTRAL NEBRASKA...

CITY           SKY/WX    TMP DP  RH WIND       PRES   REMARKS
GRAND ISLAND   CLOUDY    27  17  66 N18       30.23R WCI  14
HASTINGS       CLOUDY    27  17  66 N20       30.21R WCI  13
ORD            PTSUNNY   25  16  68 NW14      30.23R WCI  13
YORK           CLOUDY    27  18  69 N13G22    30.20R WCI  16
AURORA         CLOUDY    28  18  67 N22       30.20R WCI  13
LEXINGTON      PTSUNNY   26  19  76 NW8       30.26R WCI  17
HOLDREGE       CLOUDY    27  18  68 NW13      30.23R WCI  16
HEBRON         CLOUDY    29  19  65 N21       30.19R WCI  16

...NEBRASKA PANHANDLE...

CITY           SKY/WX    TMP DP  RH WIND       PRES   REMARKS
CHADRON        SUNNY     26  16  65 W15       30.24R WCI  14
ALLIANCE       SUNNY     23  15  71 W15       30.22S WCI  10
SCOTTSBLUFF    SUNNY     20  14  77 W12       30.27R WCI   8
SIDNEY         SUNNY     21  14  74 NW15      30.25R WCI   8

...WESTERN AND NORTH CENTRAL NEBRASKA...

CITY           SKY/WX    TMP DP  RH WIND       PRES   REMARKS
VALENTINE      MOSUNNY   26  15  63 W12       30.18F WCI  16
AINSWORTH      SUNNY     25  17  73 W3        30.20F
ONEILL         SUNNY     26  16  65 NW12      30.22S WCI  16
BROKEN BOW     MOSUNNY   26  16  65 NW15      30.23R WCI  14
IMPERIAL       MOSUNNY   24  19  81 NW13      30.27R WCI  12
NORTH PLATTE   SUNNY     27  17  66 W15       30.25S WCI  15
MCCOOK         CLOUDY    26  17  68 NW12      30.28R WCI  16

...EASTERN NEBRASKA...

CITY           SKY/WX    TMP DP  RH WIND       PRES   REMARKS
NORFOLK        CLOUDY    26  14  60 NW16      30.18R WCI  14
SO SIOUX CITY  CLOUDY    28  16  60 NW20      30.17R WCI  15
TEKAMAH        CLOUDY    29  18  63 N21       30.16R WCI  16
COLUMBUS       CLOUDY    27  14  59 NW22G28   30.19R WCI  12
ALBION         CLOUDY    26  14  61 NW13G20   30.20R WCI  14
OMAHA EPPLEY   CLOUDY    29  18  63 N21G28    30.16R WCI  16
OFFUTT AFB     CLOUDY    29  18  63 NW17G23   30.15R WCI  17
MILLARD        CLOUDY    29  15  56 NW12G24   30.15R WCI  19
LINCOLN        CLOUDY    30  16  56 N22G29    30.18R WCI  17
NEBRASKA CITY  CLOUDY    29  20  69 N21       30.12R WCI  16
BEATRICE       CLOUDY    29  19  66 N24       30.17R WCI  15
FALLS CITY     CLOUDY    30  22  72 N12G23    30.12R WCI  20

...NORTHERN KANSAS...

CITY           SKY/WX    TMP DP  RH WIND       PRES   REMARKS
GOODLAND       MOSUNNY   25  21  85 NW16      30.27R WCI  12
HILL CITY      CLOUDY    31  17  56 NW18G26   30.27R WCI  19
PHILLIPSBURG   MOSUNNY   30  18  59 NW17      30.26R WCI  18
SMITH CENTER   PTSUNNY   28  18  64 N22       30.24R WCI  15
BELOIT         CLOUDY    30  18  59 N21       30.21R WCI  17
HAYS           CLOUDY    32  12  43 N26G32    30.23R WCI  18
RUSSELL        CLOUDY    31  17  56 N20       30.22R WCI  19
CONCORDIA      CLOUDY    29  18  63 N21G28    30.19R WCI  16
SALINA         CLOUDY    31  19  61 N23       30.19R WCI  18
TOPEKA         CLOUDY    33  22  63 N24G30    30.12R WCI  20



USA.gov is the U.S. government's official web portal to all federal, state and local government web resources and services.